TimeMST,TemperatureF,Dew PointF,Humidity,Sea Level PressureIn,VisibilityMPH,Wind Direction,Wind SpeedMPH,Gust SpeedMPH,PrecipitationIn,Events,Conditions,WindDirDegrees,DateUTC
12:57 AM,57.9,48.9,72,29.95,10.0,Calm,Calm,-,N/A,,Clear,0,2013-07-08 07:57:00
1:57 AM,55.9,48.0,75,29.97,10.0,West,3.5,-,N/A,,Clear,260,2013-07-08 08:57:00
2:57 AM,59.0,46.0,62,29.96,10.0,SSW,3.5,-,N/A,,Clear,210,2013-07-08 09:57:00
3:57 AM,54.0,48.0,80,29.99,10.0,Calm,Calm,-,N/A,,Clear,0,2013-07-08 10:57:00
4:57 AM,53.1,46.9,80,30.00,10.0,Calm,Calm,-,N/A,,Clear,0,2013-07-08 11:57:00
5:57 AM,53.1,46.9,80,30.01,10.0,Calm,Calm,-,N/A,,Clear,0,2013-07-08 12:57:00
6:57 AM,59.0,51.1,75,30.00,10.0,Calm,Calm,-,N/A,,Clear,0,2013-07-08 13:57:00
7:57 AM,68.0,51.1,55,30.01,10.0,Calm,Calm,-,N/A,,Clear,0,2013-07-08 14:57:00
8:57 AM,73.9,48.0,40,30.01,10.0,SW,5.8,-,N/A,,Clear,230,2013-07-08 15:57:00
9:57 AM,79.0,39.0,24,30.01,10.0,SW,6.9,-,N/A,,Clear,230,2013-07-08 16:57:00
10:57 AM,81.0,39.9,23,30.00,10.0,WSW,8.1,-,N/A,,Clear,240,2013-07-08 17:57:00
11:57 AM,81.0,42.1,25,29.99,10.0,Variable,3.5,-,N/A,,Scattered Clouds,0,2013-07-08 18:57:00
12:57 PM,81.0,41.0,24,30.00,10.0,SSW,8.1,-,N/A,,Clear,210,2013-07-08 19:57:00
1:57 PM,84.9,39.0,20,29.97,10.0,South,8.1,-,N/A,,Clear,190,2013-07-08 20:57:00
2:57 PM,86.0,41.0,20,29.94,10.0,Variable,4.6,19.6,N/A,,Scattered Clouds,0,2013-07-08 21:57:00
3:57 PM,86.0,39.0,19,29.95,10.0,Variable,3.5,-,N/A,,Overcast,0,2013-07-08 22:57:00
4:57 PM,87.1,37.0,17,29.94,10.0,WSW,8.1,-,N/A,,Partly Cloudy,250,2013-07-08 23:57:00
5:57 PM,82.9,37.9,20,29.96,10.0,Variable,5.8,-,N/A,,Clear,0,2013-07-09 00:57:00
6:57 PM,80.1,41.0,25,29.96,10.0,Calm,Calm,-,N/A,,Mostly Cloudy,0,2013-07-09 01:57:00
7:57 PM,73.0,48.0,41,29.97,10.0,Calm,Calm,-,N/A,,Scattered Clouds,0,2013-07-09 02:57:00
8:57 PM,70.0,50.0,49,29.99,10.0,Calm,Calm,-,N/A,,Mostly Cloudy,0,2013-07-09 03:57:00
9:57 PM,70.0,48.9,47,29.98,10.0,SSW,3.5,-,N/A,,Overcast,210,2013-07-09 04:57:00
10:57 PM,64.9,48.0,54,30.01,10.0,Calm,Calm,-,N/A,,Clear,0,2013-07-09 05:57:00
11:57 PM,62.1,46.0,56,30.02,10.0,Calm,Calm,-,N/A,,Clear,0,2013-07-09 06:57:00